Date String (YYYY-MM-DD hh:mm:ss) UTC,Instrument flags,Ambient pressure (hPa),Sample flow (lpm),Bypass flow (lpm),Sample temperature (°C),Ambient temperature (°C),ASC tube jacket temperature (°C),LED temperature (°C),Box temperature (°C),Sample RH (%),Span deviation,Mass concentration (μg/m³),Mass concentration (μg/m³),Mass concentration (μg/m³)
DateTimeUTC,F1_M11,P_M11,Q1_M11,Q2_M11,T1_M11,T2_M11,T3_M11,T4_M11,T5_M11,U1_M11,ZSPAN_M11,X2_M11,X0_M11,X1_M11
2022-10-30 13:00:00,,0829.0,5.01,0.00,23.3,21.5,00.0,32.3,25.0,10.2,0000.0,0004.33,0007.89,0004.02
2022-10-30 13:01:00,,0829.0,5.01,0.00,23.3,21.5,00.0,32.2,25.0,10.1,0000.0,0004.31,0007.85,0004.01
2022-10-30 13:02:00,,0829.0,4.99,0.00,23.3,21.5,00.0,32.2,25.0,10.1,0000.0,0004.33,0007.87,0004.01
2022-10-30 13:03:00,,0829.1,5.01,0.00,23.2,21.5,00.0,32.2,25.0,10.1,0000.0,0004.34,0007.85,0004.02
2022-10-30 13:04:00,,0829.1,5.00,0.00,23.2,21.5,00.0,32.2,25.0,10.1,0000.0,0004.35,0008.03,0004.01
2022-10-30 13:05:00,,0829.1,4.99,0.00,23.2,21.5,00.0,32.2,25.0,10.1,0000.0,0004.35,0007.96,0004.02
2022-10-30 13:06:00,,0829.0,5.01,0.00,23.2,21.4,00.0,32.2,25.0,10.1,0000.0,0004.35,0007.92,0004.04
2022-10-30 13:07:00,,0829.1,5.01,0.00,23.2,21.4,00.0,32.1,24.9,10.2,0000.0,0004.36,0008.27,0004.05
2022-10-30 13:08:00,,0829.0,4.99,0.00,23.2,21.3,00.0,32.1,24.9,10.3,0000.0,0004.37,0008.00,0004.05
2022-10-30 13:09:00,,0829.0,5.00,0.00,23.2,21.4,00.0,32.1,24.9,10.4,0000.0,0004.38,0008.05,0004.05
2022-10-30 13:10:00,,0829.1,5.01,0.00,23.1,21.4,00.0,32.1,24.9,10.3,0000.0,0004.38,0007.92,0004.05
2022-10-30 13:11:00,,0829.0,4.99,0.00,23.1,21.3,00.0,32.1,24.9,10.2,0000.0,0004.38,0007.74,0004.05
2022-10-30 13:12:00,,0829.0,4.99,0.00,23.1,21.3,00.0,32.1,24.8,10.4,0000.0,0004.40,0007.79,0004.07
2022-10-30 13:13:00,,0829.0,5.01,0.00,23.1,21.3,00.0,32.0,24.8,10.5,0000.0,0004.42,0007.81,0004.07
2022-10-30 13:14:00,,0829.1,5.01,0.00,23.1,21.2,00.0,32.0,24.8,10.6,0000.0,0004.40,0007.73,0004.07
2022-10-30 13:15:00,,0829.1,4.98,0.00,23.1,21.2,00.0,32.0,24.8,10.6,0000.0,0004.39,0007.61,0004.07
2022-10-30 13:16:00,,0829.1,5.01,0.00,23.0,21.2,00.0,32.0,24.8,10.7,0000.0,0004.38,0007.61,0004.05
2022-10-30 13:17:00,,0829.1,5.01,0.00,23.0,21.2,00.0,32.0,24.8,10.7,0000.0,0004.40,0007.86,0004.03
2022-10-30 13:18:00,,0829.0,4.99,0.00,23.0,21.2,00.0,32.0,24.7,10.8,0000.0,0004.40,0007.61,0004.01
2022-10-30 13:19:00,,0829.1,5.01,0.00,23.0,21.1,00.0,31.9,24.7,10.7,0000.0,0004.41,0007.60,0004.00
2022-10-30 13:20:00,,0829.1,5.01,0.00,23.0,21.1,00.0,31.9,24.7,10.7,0000.0,0004.36,0007.56,0003.98
2022-10-30 13:21:00,,0829.1,4.99,0.00,22.9,21.1,00.0,31.9,24.7,10.7,0000.0,0004.31,0007.93,0003.95
2022-10-30 13:22:00,,0829.0,5.01,0.00,22.9,21.0,00.0,31.9,24.6,10.7,0000.0,0004.28,0008.01,0003.93
2022-10-30 13:23:00,,0829.0,5.00,0.00,22.9,20.9,00.0,31.8,24.6,10.6,0000.0,0004.25,0007.92,0003.92
2022-10-30 13:24:00,,0829.1,5.00,0.00,22.9,20.9,00.0,31.8,24.6,10.6,0000.0,0004.22,0007.89,0003.91
2022-10-30 13:25:00,,0829.1,4.98,0.00,22.8,21.0,00.0,31.8,24.5,10.6,0000.0,0004.26,0008.19,0003.91
2022-10-30 13:26:00,,0829.1,5.00,0.00,22.8,20.9,00.0,31.8,24.5,10.5,0000.0,0004.27,0008.94,0003.92
2022-10-30 13:27:00,,0829.0,5.01,0.00,22.8,20.9,00.0,31.8,24.5,10.6,0000.0,0004.27,0008.89,0003.94
2022-10-30 13:28:00,,0829.1,5.01,0.00,22.8,20.9,00.0,31.7,24.5,10.5,0000.0,0004.28,0009.23,0003.96
2022-10-30 13:29:00,,0829.0,4.98,0.00,22.7,20.8,00.0,31.7,24.5,10.6,0000.0,0004.30,0009.55,0003.97
2022-10-30 13:30:00,,0829.1,5.00,0.00,22.7,20.8,00.0,31.7,24.4,10.6,0000.0,0004.29,0009.52,0003.99
2022-10-30 13:31:00,,0829.1,5.00,0.00,22.7,20.8,00.0,31.7,24.4,10.6,0000.0,0004.32,0009.57,0004.01
2022-10-30 13:32:00,,0829.1,5.00,0.00,22.7,20.8,00.0,31.7,24.4,10.7,0000.0,0004.36,0009.12,0004.02
2022-10-30 13:33:00,,0829.2,4.99,0.00,22.7,20.8,00.0,31.6,24.3,10.7,0000.0,0004.35,0008.93,0004.03
2022-10-30 13:34:00,,0829.2,5.01,0.00,22.6,20.8,00.0,31.6,24.4,10.8,0000.0,0004.37,0008.96,0004.03
2022-10-30 13:35:00,,0829.2,4.99,0.00,22.6,20.8,00.0,31.6,24.4,10.8,0000.0,0004.39,0008.99,0004.04
2022-10-30 13:36:00,,0829.2,5.01,0.00,22.6,20.8,00.0,31.6,24.4,10.9,0000.0,0004.36,0008.86,0004.03
2022-10-30 13:37:00,,0829.2,5.01,0.00,22.6,20.8,00.0,31.6,24.4,10.9,0000.0,0004.35,0008.04,0004.03
2022-10-30 13:38:00,,0829.2,4.98,0.00,22.6,20.9,00.0,31.6,24.3,10.9,0000.0,0004.35,0007.99,0004.01
2022-10-30 13:39:00,,0829.2,5.01,0.00,22.6,20.9,00.0,31.5,24.4,10.9,0000.0,0004.32,0007.45,0004.00
2022-10-30 13:40:00,,0829.1,4.98,0.00,22.6,20.9,00.0,31.5,24.4,10.9,0000.0,0004.30,0006.75,0003.99
2022-10-30 13:41:00,,0829.1,5.02,0.00,22.6,20.9,00.0,31.5,24.3,11.0,0000.0,0004.31,0006.78,0003.99
2022-10-30 13:42:00,,0829.1,4.99,0.00,22.6,20.8,00.0,31.5,24.3,11.0,0000.0,0004.32,0006.78,0003.99
2022-10-30 13:43:00,,0829.2,5.00,0.00,22.6,20.8,00.0,31.5,24.3,11.0,0000.0,0004.33,0007.27,0003.99
2022-10-30 13:44:00,,0829.2,5.01,0.00,22.5,20.8,00.0,31.5,24.2,11.0,0000.0,0004.35,0007.91,0003.99
2022-10-30 13:45:00,,0829.2,5.01,0.00,22.5,20.7,00.0,31.5,24.2,11.1,0000.0,0004.33,0008.07,0003.98
2022-10-30 13:46:00,,0829.2,4.98,0.00,22.5,20.7,00.0,31.5,24.2,11.1,0000.0,0004.32,0008.53,0003.97
2022-10-30 13:47:00,,0829.3,5.01,0.00,22.5,20.8,00.0,31.4,24.2,11.2,0000.0,0004.34,0008.69,0003.98
2022-10-30 13:48:00,,0829.3,4.98,0.00,22.5,20.8,00.0,31.4,24.2,11.2,0000.0,0004.37,0009.48,0003.97
2022-10-30 13:49:00,,0829.3,5.01,0.00,22.5,20.8,00.0,31.4,24.2,11.2,0000.0,0004.35,0009.95,0003.96
2022-10-30 13:50:00,,0829.3,5.01,0.00,22.5,20.8,00.0,31.4,24.2,11.2,0000.0,0004.35,0010.17,0003.96
2022-10-30 13:51:00,,0829.2,4.98,0.00,22.5,20.8,00.0,31.4,24.2,11.2,0000.0,0004.33,0010.21,0003.95
2022-10-30 13:52:00,,0829.3,5.01,0.00,22.5,20.8,00.0,31.4,24.2,11.2,0000.0,0004.33,0010.49,0003.95
2022-10-30 13:53:00,,0829.2,5.00,0.00,22.4,20.8,00.0,31.4,24.2,11.1,0000.0,0004.31,0010.70,0003.94
2022-10-30 13:54:00,,0829.3,4.99,0.00,22.4,20.7,00.0,31.3,24.1,11.1,0000.0,0004.28,0010.55,0003.92
2022-10-30 13:55:00,,0829.2,5.01,0.00,22.4,20.7,00.0,31.3,24.1,11.1,0000.0,0004.26,0010.30,0003.90
2022-10-30 13:56:00,,0829.3,4.99,0.00,22.4,20.6,00.0,31.3,24.1,11.1,0000.0,0004.26,0010.51,0003.90
2022-10-30 13:57:00,,0829.3,5.01,0.00,22.4,20.6,00.0,31.3,24.1,11.2,0000.0,0004.24,0010.81,0003.89
2022-10-30 13:58:00,,0829.3,5.01,0.00,22.3,20.6,00.0,31.3,24.0,11.2,0000.0,0004.21,0010.48,0003.88
2022-10-30 13:59:00,,0829.3,4.99,0.00,22.3,20.6,00.0,31.3,24.0,11.2,0000.0,0004.16,0010.05,0003.87
